Sisseton, SD

8:54 PM CDT on July 25, 2016 (GMT -0500)
Sisseton

Weather History for K8D3 - May, 2013

Change the Weather History Date:

Sunday, May 12, 2013

  Actual Average Record
Temperature  
Mean Temperature 45 °F 56 °F  
Max Temperature 63 °F 69 °F 89 °F (1991)
Min Temperature 27 °F 44 °F 19 °F (1946)
Degree Days  
Heating Degree Days 20 9  
Month to date heating degree days 218 135  
Since 1 July heating degree days 8978 8094  
Cooling Degree Days 0 1  
Month to date cooling degree days 0 3  
Year to date cooling degree days 0 4  
Moisture  
Dew Point 19 °F    
Average Humidity 45    
Maximum Humidity 75    
Minimum Humidity 14    
Precipitation  
Precipitation 0.00 in 0.10 in 2.20 in (1998)
Month to date precipitation 0.17 1.03  
Year to date precipitation 5.79 5.29  
Sea Level Pressure  
Sea Level Pressure 30.19 in    
Wind  
Wind Speed 5 mph (West)    
Max Wind Speed 14 mph    
Max Gust Speed 20 mph    
T = Trace of Precipitation, MM = Missing Value Source: NWS Daily Summary

Daily Weather History Graph

Daily Weather History Graph

Search for Another Location

Airport or City:

Trip Planner

Search our weather history database for the weather conditions in past years. The results will help you decide how hot, cold, wet, or windy it might be!

Date:

Astronomy

May. 12, 2013 Rise Set
Actual Time 6:00 AM CDT 8:49 PM CDT
Civil Twilight 5:25 AM CDT 9:23 PM CDT
Nautical Twilight 4:42 AM CDT 10:07 PM CDT
Astronomical Twilight 3:50 AM CDT 10:59 PM CDT
Moon 7:54 AM CDT (5/12) 11:18 PM CDT (5/12)
Length of Visible Light 15h 58m
Length of Day
14h 49m
Waxing Crescent, 7% of the Moon is Illuminated
May 12
Waxing Crescent
May 17
First Quarter
May 24
Full
May 31
Last Quarter
Jun 8
New

Hourly Weather History & Observations

Time (CDT) Temp. Windchill Dew Point Humidity Pressure Visibility Wind Dir Wind Speed Gust Speed Precip Events Conditions
12:56 AM 33.1 °F 26.9 °F 19.9 °F 59% 30.29 in - WNW 6.9 mph - N/A   Unknown
1:56 AM 30.0 °F 24.1 °F 19.9 °F 66% 30.30 in - WNW 5.8 mph - N/A   Unknown
2:56 AM 30.0 °F 26.5 °F 19.0 °F 64% 30.28 in - WNW 3.5 mph - N/A   Unknown
3:56 AM 28.9 °F 22.8 °F 19.0 °F 67% 30.29 in - WNW 5.8 mph - N/A   Unknown
4:56 AM 27.0 °F 23.0 °F 19.0 °F 72% 30.28 in - WNW 3.5 mph - N/A   Unknown
5:56 AM 28.9 °F 21.9 °F 18.0 °F 64% 30.28 in - West 6.9 mph - N/A   Unknown
6:56 AM 30.9 °F - 21.0 °F 67% 30.28 in - Calm Calm - N/A   Unknown
7:56 AM 41.0 °F - 23.0 °F 49% 30.27 in - Calm Calm - N/A   Unknown
8:56 AM 46.0 °F - 19.0 °F 34% 30.27 in - Calm Calm - N/A   Unknown
9:56 AM 48.9 °F - 19.9 °F 32% 30.27 in - North 4.6 mph - N/A   Unknown
10:56 AM 52.0 °F - 18.0 °F 26% 30.26 in - Variable 4.6 mph - N/A   Unknown
11:56 AM 54.0 °F - 18.0 °F 24% 30.24 in - Variable 4.6 mph - N/A   Unknown
12:56 PM 55.9 °F - 21.0 °F 26% 30.22 in - WSW 6.9 mph - N/A   Unknown
1:56 PM 57.0 °F - 19.9 °F 24% 30.19 in - Calm Calm - N/A   Unknown
2:56 PM 57.9 °F - 17.1 °F 20% 30.18 in - Calm Calm - N/A   Unknown
3:56 PM 60.1 °F - 17.1 °F 19% 30.15 in - Variable 6.9 mph 16.1 mph N/A   Unknown
4:56 PM 62.1 °F - 16.0 °F 17% 30.13 in - Variable 6.9 mph - N/A   Unknown
5:56 PM 63.0 °F - 14.0 °F 15% 30.12 in - NNW 6.9 mph - N/A   Unknown
6:56 PM 63.0 °F - 15.1 °F 16% 30.09 in - NNW 9.2 mph - N/A   Unknown
7:56 PM 61.0 °F - 14.0 °F 16% 30.06 in - Calm Calm - N/A   Unknown
8:56 PM 55.9 °F - 18.0 °F 23% 30.05 in - SSE 4.6 mph - N/A   Unknown
9:56 PM 53.1 °F - 19.9 °F 27% 30.05 in - South 6.9 mph - N/A   Unknown
10:56 PM 48.9 °F - 26.1 °F 41% 30.04 in - SSW 8.1 mph - N/A   Unknown
11:56 PM 48.9 °F - 26.1 °F 41% 30.03 in - SSW 8.1 mph - N/A   Unknown